Location: Munkebjergskolens Observatorium
(55.3864°N, 10.3987°E)
Time: 22:55:35
(UTC+01:00)

DELTA 1 DEB - Pass Details

Date: 04 December 2023
Orbit: 783 x 826 km, 98.9° (Epoch: 04 March)

Event Time Altitude Azimuth Distance (km) Brightness Sun altitude
Rises 07:39:19 0° 15° (NNE) 3,366 ? -6.2°
Reaches altitude 10° 07:41:40 10° 14° (NNE) 2,434 ? -5.9°
Maximum altitude 07:47:03 73° 291° (WNW) 869 ? -5.3°
Drops below altitude 10° 07:52:25 10° 208° (SSW) 2,429 ? -4.6°
Sets 07:54:46 0° 206° (SSW) 3,359 ? -4.3°
